Location: Unspecified
(44.4377°N, 88.0525°W)
Time: 11:45:16
(UTC-05:00)

Cosmos 1674 - Visible Passes

Search period start: 21 July 2017 00:00
Search period end: 31 July 2017 00:00
Orbit: 498 x 523 km, 82.5° (Epoch: 21 July)

Date Brightness Start Highest point End Pass type
(mag) Time Alt. Az. Time Alt. Az. Time Alt. Az.
21 Jul 5.0 04:41:40 10° NNE 04:45:01 28° ENE 04:48:23 10° SE visible
22 Jul 5.4 04:25:14 10° NNE 04:28:21 23° ENE 04:31:27 10° SE visible
23 Jul 5.6 04:08:53 10° NNE 04:11:39 19° ENE 04:14:25 10° ESE visible
24 Jul 5.7 03:52:37 10° NNE 03:54:56 15° ENE 03:57:15 10° ESE visible
25 Jul 5.9 03:36:33 10° NE 03:38:13 12° ENE 03:39:52 10° E visible
26 Jul 2.7 04:53:43 10° NNW 04:57:33 67° W 05:01:22 10° S visible
27 Jul 2.7 04:37:04 10° N 04:40:56 86° W 04:44:47 10° S visible
28 Jul 2.9 04:20:26 10° N 04:24:18 74° E 04:28:09 10° SSE visible
29 Jul 3.3 04:03:50 10° N 04:07:39 57° E 04:11:27 10° SSE visible
30 Jul 3.8 03:47:16 10° N 03:51:00 44° ENE 03:54:42 10° SSE visible
